7 * 24
多渠道服务支持
QIANFAN-139(NORAD编号69084)是中国千帆星座互联网卫星项目中的一颗卫星。千帆星座由我国民营企业主导建设,旨在构建低轨宽带通信卫星星座,提供全球泛在互联服务,支撑物联网、远程通信等应用需求。 该卫星运行于近地轨道,是千帆星座组网过程中发射的卫星之一,延续了千帆卫星系列设计方案,承担着网络验证与星座扩容任务,推动我国低轨卫星互联网基础设施建设。目前公开资料中暂未披露其详细任务参数与特殊设计。
中国
(CN)
| 数据来源 | 国际轨道数据 |
| 星历时间: | 2026-06-13T03:21:01+0800 6小时前 查看轨道信息 |
| 半长轴: | 7239.923km |
| 偏心率: | 0.000438 |
| 轨道倾角: | 88.986° |
| 近地点辐角 | 98.218° |
| 升交点赤经 | 342.107° |
| 平近点角 | 261.950° |
| 近地点: | 858.614km |
| 远地点: | 864.958km |
| 周期: | 102.179分钟 |
| 每日圈数: | 14.09295 |